Time,TemperatureF,DewpointF,PressureIn,WindDirection,WindDirectionDegrees,WindSpeedMPH,WindSpeedGustMPH,Humidity,HourlyPrecipIn,Conditions,Clouds,dailyrainin,SoftwareType,DateUTC
2013-06-12 00:03:00,68.0,64.0,29.83,WNW,294,0.0,2.0,86,0.00,,,0.01,,2013-06-12 04:03:00,
2013-06-12 00:13:00,68.0,64.0,29.83,WNW,294,0.0,2.0,86,0.00,,,0.01,,2013-06-12 04:13:00,
2013-06-12 00:23:00,68.0,64.0,29.83,WNW,294,0.0,0.0,86,0.00,,,0.01,,2013-06-12 04:23:00,
2013-06-12 00:33:00,67.0,63.0,29.83,WNW,294,0.0,0.0,88,0.00,,,0.01,,2013-06-12 04:33:00,
2013-06-12 00:42:00,67.0,64.0,29.84,WNW,282,0.0,4.0,89,0.00,,,0.01,,2013-06-12 04:42:00,
2013-06-12 00:52:00,67.0,64.0,29.84,WNW,282,0.0,4.0,89,0.00,,,0.01,,2013-06-12 04:52:00,
2013-06-12 01:03:00,67.0,63.0,29.83,NNW,336,0.0,2.0,88,0.00,,,0.01,,2013-06-12 05:03:00,
2013-06-12 01:12:00,68.0,64.0,29.85,NNW,336,0.0,2.0,88,0.00,,,0.01,,2013-06-12 05:12:00,
2013-06-12 01:22:00,68.0,64.0,29.85,NNW,336,0.0,2.0,88,0.00,,,0.01,,2013-06-12 05:22:00,
2013-06-12 01:32:00,68.0,65.0,29.83,NNW,336,0.0,0.0,89,0.00,,,0.01,,2013-06-12 05:32:00,
2013-06-12 01:42:00,68.0,65.0,29.81,NW,323,0.0,2.0,90,0.00,,,0.01,,2013-06-12 05:42:00,
2013-06-12 01:52:00,68.0,65.0,29.81,NW,323,0.0,2.0,90,0.00,,,0.01,,2013-06-12 05:52:00,
2013-06-12 02:02:00,69.0,66.0,29.83,NW,325,0.0,2.0,89,0.00,,,0.01,,2013-06-12 06:02:00,
2013-06-12 02:12:00,69.0,66.0,29.83,NW,325,0.0,2.0,89,0.00,,,0.01,,2013-06-12 06:12:00,
2013-06-12 02:22:00,68.0,65.0,29.84,NW,325,0.0,0.0,89,0.00,,,0.01,,2013-06-12 06:22:00,
2013-06-12 02:32:00,68.0,65.0,29.83,NW,325,0.0,0.0,90,0.00,,,0.01,,2013-06-12 06:32:00,
2013-06-12 02:42:00,67.0,65.0,29.80,NW,325,0.0,0.0,92,0.00,,,0.01,,2013-06-12 06:42:00,
2013-06-12 02:52:00,67.0,65.0,29.80,NW,325,0.0,0.0,92,0.00,,,0.01,,2013-06-12 06:52:00,
2013-06-12 03:02:00,66.0,64.0,29.80,NW,325,0.0,0.0,93,0.00,,,0.01,,2013-06-12 07:02:00,
2013-06-12 03:12:00,66.0,64.0,29.83,NW,325,0.0,0.0,94,0.00,,,0.01,,2013-06-12 07:12:00,
2013-06-12 03:22:00,66.0,65.0,29.83,NW,325,0.0,0.0,95,0.00,,,0.01,,2013-06-12 07:22:00,
2013-06-12 03:33:00,66.0,65.0,29.83,NW,325,0.0,0.0,95,0.00,,,0.01,,2013-06-12 07:33:00,
2013-06-12 03:43:00,66.0,65.0,29.83,NW,325,0.0,0.0,96,0.00,,,0.01,,2013-06-12 07:43:00,
2013-06-12 03:53:00,66.0,65.0,29.85,NW,325,0.0,0.0,96,0.00,,,0.01,,2013-06-12 07:53:00,
2013-06-12 04:02:00,67.0,66.0,29.85,NW,325,0.0,0.0,96,0.00,,,0.01,,2013-06-12 08:02:00,
2013-06-12 04:12:00,67.0,66.0,29.85,NW,325,0.0,0.0,96,0.00,,,0.01,,2013-06-12 08:12:00,
2013-06-12 04:22:00,67.0,66.0,29.85,NW,325,0.0,0.0,96,0.00,,,0.01,,2013-06-12 08:22:00,
2013-06-12 04:33:00,67.0,66.0,29.85,NW,325,0.0,0.0,96,0.00,,,0.01,,2013-06-12 08:33:00,
2013-06-12 04:43:00,67.0,66.0,29.85,NW,325,0.0,0.0,96,0.00,,,0.01,,2013-06-12 08:43:00,
2013-06-12 04:53:00,67.0,66.0,29.85,NW,325,0.0,0.0,96,0.00,,,0.01,,2013-06-12 08:53:00,
2013-06-12 05:01:00,67.0,66.0,29.85,NW,325,0.0,0.0,96,0.00,,,0.01,,2013-06-12 09:01:00,
2013-06-12 05:11:00,66.0,65.0,29.85,NW,325,0.0,0.0,96,0.00,,,0.01,,2013-06-12 09:11:00,
2013-06-12 05:22:00,66.0,65.0,29.84,NW,325,0.0,0.0,96,0.00,,,0.01,,2013-06-12 09:22:00,
2013-06-12 05:33:00,66.0,65.0,29.83,NW,325,0.0,0.0,96,0.00,,,0.01,,2013-06-12 09:33:00,
2013-06-12 05:42:00,66.0,65.0,29.83,NW,325,0.0,1.0,97,0.00,,,0.01,,2013-06-12 09:42:00,
2013-06-12 05:53:00,66.0,65.0,29.83,NW,325,0.0,0.0,97,0.00,,,0.01,,2013-06-12 09:53:00,
2013-06-12 06:02:00,66.0,65.0,29.83,NW,325,0.0,0.0,97,0.00,,,0.01,,2013-06-12 10:02:00,
2013-06-12 06:12:00,66.0,65.0,29.83,NW,325,0.0,2.0,97,0.00,,,0.01,,2013-06-12 10:12:00,
2013-06-12 06:23:00,66.0,65.0,29.83,NW,325,0.0,0.0,97,0.00,,,0.01,,2013-06-12 10:23:00,
2013-06-12 06:33:00,66.0,65.0,29.81,NW,325,0.0,2.0,97,0.00,,,0.01,,2013-06-12 10:33:00,
2013-06-12 06:43:00,66.0,65.0,29.83,NW,325,0.0,0.0,98,0.00,,,0.01,,2013-06-12 10:43:00,
2013-06-12 06:53:00,66.0,65.0,29.83,NW,325,0.0,0.0,98,0.00,,,0.01,,2013-06-12 10:53:00,
2013-06-12 07:02:00,66.0,65.0,29.85,NW,325,0.0,0.0,98,0.00,,,0.01,,2013-06-12 11:02:00,
2013-06-12 07:12:00,66.0,65.0,29.85,NW,325,0.0,0.0,98,0.00,,,0.01,,2013-06-12 11:12:00,
2013-06-12 07:24:00,65.0,64.0,29.84,NW,325,0.0,0.0,98,0.00,,,0.01,,2013-06-12 11:24:00,
2013-06-12 07:33:00,65.0,64.0,29.84,NW,325,0.0,0.0,98,0.00,,,0.01,,2013-06-12 11:33:00,
2013-06-12 07:43:00,66.0,65.0,29.84,NW,325,0.0,0.0,98,0.00,,,0.01,,2013-06-12 11:43:00,
2013-06-12 07:53:00,66.0,65.0,29.83,NNW,328,0.0,2.0,98,0.00,,,0.01,,2013-06-12 11:53:00,
2013-06-12 08:02:00,66.0,65.0,29.84,NNW,328,0.0,2.0,98,0.00,,,0.01,,2013-06-12 12:02:00,
2013-06-12 08:11:00,67.0,66.0,29.85,NNW,328,0.0,0.0,98,0.00,,,0.01,,2013-06-12 12:11:00,
2013-06-12 08:23:00,68.0,67.0,29.86,NNW,328,0.0,0.0,98,0.00,,,0.01,,2013-06-12 12:23:00,
2013-06-12 08:33:00,68.0,67.0,29.86,NNW,328,0.0,0.0,97,0.00,,,0.01,,2013-06-12 12:33:00,
2013-06-12 08:42:00,69.0,68.0,29.87,NNW,336,0.0,0.0,95,0.00,,,0.01,,2013-06-12 12:42:00,
2013-06-12 08:53:00,70.0,68.0,29.86,NNW,336,0.0,0.0,94,0.00,,,0.01,,2013-06-12 12:53:00,
2013-06-12 09:01:00,70.0,68.0,29.86,NNW,336,0.0,0.0,93,0.00,,,0.01,,2013-06-12 13:01:00,
2013-06-12 09:12:00,71.0,68.0,29.86,NNW,336,0.0,0.0,90,0.00,,,0.01,,2013-06-12 13:12:00,
2013-06-12 09:22:00,71.0,68.0,29.87,NNW,336,0.0,4.0,89,0.00,,,0.00,,2013-06-12 13:22:00,
2013-06-12 09:33:00,71.0,67.0,29.87,NNW,336,0.0,0.0,88,0.00,,,0.00,,2013-06-12 13:33:00,
2013-06-12 09:43:00,72.0,68.0,29.87,NNW,336,0.0,0.0,88,0.00,,,0.00,,2013-06-12 13:43:00,
2013-06-12 09:53:00,72.0,68.0,29.85,South,175,0.0,6.0,88,0.00,,,0.00,,2013-06-12 13:53:00,
2013-06-12 10:02:00,72.0,68.0,29.85,South,172,0.0,6.0,88,0.00,,,0.00,,2013-06-12 14:02:00,
2013-06-12 10:11:00,72.0,68.0,29.83,South,172,0.0,4.0,88,0.00,,,0.00,,2013-06-12 14:11:00,
2013-06-12 10:24:00,72.0,68.0,29.83,North,350,1.0,4.0,88,0.00,,,0.00,,2013-06-12 14:24:00,
2013-06-12 10:33:00,73.0,69.0,29.86,NW,325,2.0,9.0,86,0.00,,,0.00,,2013-06-12 14:33:00,
2013-06-12 10:43:00,75.0,68.0,29.87,NE,41,2.0,7.0,80,0.00,,,0.00,,2013-06-12 14:43:00,
2013-06-12 10:53:00,75.0,68.0,29.87,NE,41,2.0,7.0,80,0.00,,,0.00,,2013-06-12 14:53:00,
2013-06-12 11:01:00,76.0,68.0,29.87,NW,325,1.0,4.0,77,0.00,,,0.00,,2013-06-12 15:01:00,
2013-06-12 11:12:00,76.0,68.0,29.86,NW,325,2.0,6.0,77,0.00,,,0.00,,2013-06-12 15:12:00,
2013-06-12 11:23:00,78.0,68.0,29.85,South,189,1.0,2.0,72,0.00,,,0.00,,2013-06-12 15:23:00,
2013-06-12 11:33:00,78.0,69.0,29.85,SW,219,0.0,4.0,73,0.00,,,0.00,,2013-06-12 15:33:00,
2013-06-12 11:43:00,78.0,69.0,29.83,SW,219,1.0,4.0,73,0.00,,,0.00,,2013-06-12 15:43:00,
2013-06-12 11:52:00,79.0,69.0,29.82,South,185,1.0,4.0,72,0.00,,,0.00,,2013-06-12 15:52:00,
2013-06-12 12:02:00,79.0,68.0,29.82,SSE,167,2.0,6.0,70,0.00,,,0.00,,2013-06-12 16:02:00,
2013-06-12 12:12:00,80.0,69.0,29.80,SSE,168,2.0,6.0,69,0.00,,,0.00,,2013-06-12 16:12:00,
2013-06-12 12:22:00,79.0,68.0,29.83,ESE,120,1.0,4.0,69,0.00,,,0.00,,2013-06-12 16:22:00,
2013-06-12 12:32:00,79.0,69.0,29.83,SE,134,0.0,4.0,71,0.00,,,0.00,,2013-06-12 16:32:00,
2013-06-12 12:43:00,79.0,69.0,29.81,SSE,158,2.0,6.0,72,0.00,,,0.00,,2013-06-12 16:43:00,
2013-06-12 12:52:00,79.0,69.0,29.81,SSE,158,2.0,6.0,72,0.00,,,0.00,,2013-06-12 16:52:00,
2013-06-12 13:01:00,78.0,69.0,29.81,NW,316,0.0,2.0,74,0.00,,,0.00,,2013-06-12 17:01:00,
2013-06-12 13:12:00,78.0,69.0,29.79,SSW,199,2.0,4.0,75,0.00,,,0.00,,2013-06-12 17:12:00,
2013-06-12 13:23:00,79.0,70.0,29.76,SSW,193,2.0,7.0,74,0.00,,,0.00,,2013-06-12 17:23:00,
2013-06-12 13:33:00,79.0,70.0,29.75,South,171,1.0,4.0,73,0.00,,,0.00,,2013-06-12 17:33:00,
2013-06-12 13:42:00,79.0,70.0,29.75,South,171,1.0,4.0,73,0.00,,,0.00,,2013-06-12 17:42:00,
2013-06-12 13:52:00,79.0,70.0,29.75,South,185,1.0,7.0,75,0.00,,,0.00,,2013-06-12 17:52:00,
2013-06-12 14:02:00,80.0,72.0,29.75,South,182,4.0,6.0,76,0.00,,,0.00,,2013-06-12 18:02:00,
2013-06-12 14:12:00,80.0,71.0,29.74,South,176,4.0,10.0,74,0.00,,,0.00,,2013-06-12 18:12:00,
2013-06-12 14:22:00,79.0,71.0,29.72,South,179,3.0,10.0,76,0.00,,,0.00,,2013-06-12 18:22:00,
2013-06-12 14:33:00,79.0,71.0,29.72,South,191,3.0,8.0,76,0.00,,,0.00,,2013-06-12 18:33:00,
2013-06-12 14:43:00,79.0,71.0,29.72,South,179,0.0,6.0,77,0.00,,,0.00,,2013-06-12 18:43:00,
2013-06-12 14:53:00,79.0,71.0,29.74,South,179,3.0,6.0,77,0.00,,,0.00,,2013-06-12 18:53:00,
2013-06-12 15:01:00,79.0,72.0,29.74,South,184,2.0,8.0,79,0.00,,,0.00,,2013-06-12 19:01:00,
2013-06-12 15:11:00,80.0,73.0,29.74,South,188,2.0,7.0,79,0.00,,,0.00,,2013-06-12 19:11:00,
2013-06-12 15:22:00,79.0,72.0,29.74,South,189,1.0,9.0,79,0.00,,,0.00,,2013-06-12 19:22:00,
2013-06-12 15:32:00,80.0,73.0,29.76,South,191,0.0,2.0,80,0.00,,,0.00,,2013-06-12 19:32:00,
2013-06-12 15:42:00,80.0,73.0,29.76,WSW,257,1.0,4.0,79,0.00,,,0.00,,2013-06-12 19:42:00,
2013-06-12 15:52:00,80.0,73.0,29.76,WSW,257,1.0,4.0,79,0.00,,,0.00,,2013-06-12 19:52:00,
2013-06-12 16:01:00,82.0,74.0,29.77,SSW,192,2.0,6.0,78,0.00,,,0.00,,2013-06-12 20:01:00,
2013-06-12 16:11:00,83.0,73.0,29.76,South,191,3.0,7.0,73,0.00,,,0.00,,2013-06-12 20:11:00,
2013-06-12 16:22:00,84.0,74.0,29.77,SW,236,1.0,8.0,71,0.00,,,0.00,,2013-06-12 20:22:00,
2013-06-12 16:32:00,85.0,73.0,29.76,NW,319,0.0,6.0,68,0.00,,,0.00,,2013-06-12 20:32:00,
2013-06-12 16:42:00,85.0,73.0,29.76,NW,319,0.0,6.0,68,0.00,,,0.00,,2013-06-12 20:42:00,
2013-06-12 16:54:00,85.0,73.0,29.76,NW,319,0.0,6.0,68,0.00,,,0.00,,2013-06-12 20:54:00,
2013-06-12 17:01:00,85.0,73.0,29.76,NW,319,0.0,6.0,68,0.00,,,0.00,,2013-06-12 21:01:00,
2013-06-12 17:12:00,85.0,74.0,29.75,WNW,288,1.0,2.0,70,0.00,,,0.00,,2013-06-12 21:12:00,
2013-06-12 17:22:00,85.0,74.0,29.75,WNW,288,1.0,2.0,70,0.00,,,0.00,,2013-06-12 21:22:00,
2013-06-12 17:33:00,86.0,72.0,29.73,WNW,287,0.0,4.0,64,0.00,,,0.00,,2013-06-12 21:33:00,
2013-06-12 17:43:00,86.0,72.0,29.73,WNW,287,0.0,1.0,63,0.00,,,0.00,,2013-06-12 21:43:00,
2013-06-12 17:52:00,87.0,73.0,29.72,WNW,292,0.0,4.0,64,0.00,,,0.00,,2013-06-12 21:52:00,
2013-06-12 18:01:00,87.0,73.0,29.72,NW,304,0.0,2.0,64,0.00,,,0.00,,2013-06-12 22:01:00,
2013-06-12 18:11:00,87.0,73.0,29.71,NW,306,0.0,1.0,63,0.00,,,0.00,,2013-06-12 22:11:00,
2013-06-12 18:22:00,87.0,74.0,29.69,NNW,330,1.0,4.0,65,0.00,,,0.00,,2013-06-12 22:22:00,
2013-06-12 18:32:00,87.0,75.0,29.69,NNE,14,1.0,4.0,67,0.00,,,0.00,,2013-06-12 22:32:00,
2013-06-12 18:43:00,86.0,74.0,29.69,NNE,14,0.0,4.0,68,0.00,,,0.00,,2013-06-12 22:43:00,
2013-06-12 18:52:00,85.0,76.0,29.68,NNE,14,0.0,0.0,74,0.00,,,0.00,,2013-06-12 22:52:00,
2013-06-12 19:02:00,84.0,74.0,29.68,NNE,14,0.0,0.0,72,0.00,,,0.00,,2013-06-12 23:02:00,
2013-06-12 19:12:00,84.0,74.0,29.68,NNE,14,0.0,0.0,72,0.00,,,0.00,,2013-06-12 23:12:00,
2013-06-12 19:22:00,84.0,76.0,29.68,NNE,14,0.0,0.0,76,0.00,,,0.00,,2013-06-12 23:22:00,
2013-06-12 19:32:00,83.0,75.0,29.67,NNE,14,0.0,0.0,76,0.00,,,0.00,,2013-06-12 23:32:00,
2013-06-12 19:42:00,83.0,75.0,29.67,NNE,14,0.0,0.0,77,0.00,,,0.00,,2013-06-12 23:42:00,
2013-06-12 19:53:00,82.0,75.0,29.66,NNE,14,0.0,0.0,80,0.00,,,0.00,,2013-06-12 23:53:00,
2013-06-12 20:01:00,81.0,74.0,29.66,NNE,14,0.0,2.0,80,0.00,,,0.00,,2013-06-13 00:01:00,
2013-06-12 20:12:00,80.0,74.0,29.65,NNE,14,0.0,0.0,82,0.00,,,0.00,,2013-06-13 00:12:00,
2013-06-12 20:22:00,80.0,75.0,29.64,NNE,14,0.0,0.0,84,0.00,,,0.00,,2013-06-13 00:22:00,
2013-06-12 20:32:00,80.0,75.0,29.64,NNE,14,0.0,0.0,84,0.00,,,0.00,,2013-06-13 00:32:00,
2013-06-12 20:42:00,78.0,74.0,29.62,NNE,14,1.0,2.0,89,0.00,,,0.00,,2013-06-13 00:42:00,
2013-06-12 20:52:00,78.0,74.0,29.62,NNE,14,0.0,1.0,89,0.00,,,0.00,,2013-06-13 00:52:00,
2013-06-12 21:01:00,79.0,74.0,29.62,SSE,167,1.0,4.0,86,0.00,,,0.00,,2013-06-13 01:01:00,
2013-06-12 21:12:00,79.0,74.0,29.62,ESE,106,0.0,4.0,86,0.00,,,0.00,,2013-06-13 01:12:00,
2013-06-12 21:22:00,79.0,74.0,29.62,ESE,106,0.0,4.0,86,0.00,,,0.00,,2013-06-13 01:22:00,
2013-06-12 21:32:00,79.0,74.0,29.62,ESE,106,0.0,4.0,86,0.00,,,0.00,,2013-06-13 01:32:00,
2013-06-12 21:43:00,79.0,74.0,29.62,ESE,106,0.0,4.0,86,0.00,,,0.00,,2013-06-13 01:43:00,
2013-06-12 21:53:00,74.0,70.0,29.58,SSW,199,3.0,7.0,88,0.00,,,0.00,,2013-06-13 01:53:00,
2013-06-12 22:02:00,73.0,70.0,29.58,SSW,210,6.0,11.0,90,0.00,,,0.00,,2013-06-13 02:02:00,
2013-06-12 22:12:00,71.0,69.0,29.60,South,175,2.0,9.0,92,0.00,,,0.00,,2013-06-13 02:12:00,
2013-06-12 22:22:00,70.0,68.0,29.62,SSE,165,0.0,8.0,93,0.00,,,0.00,,2013-06-13 02:22:00,
2013-06-12 22:33:00,70.0,68.0,29.62,South,185,3.0,10.0,95,0.00,,,0.00,,2013-06-13 02:33:00,
2013-06-12 22:43:00,70.0,69.0,29.62,South,172,1.0,10.0,96,0.00,,,0.00,,2013-06-13 02:43:00,
2013-06-12 22:52:00,70.0,69.0,29.62,SSE,164,0.0,9.0,96,0.00,,,0.00,,2013-06-13 02:52:00,
2013-06-12 23:02:00,69.0,68.0,29.63,North,4,0.0,7.0,96,0.00,,,0.00,,2013-06-13 03:02:00,
2013-06-12 23:12:00,69.0,68.0,29.63,North,4,0.0,2.0,96,0.00,,,0.00,,2013-06-13 03:12:00,
2013-06-12 23:22:00,69.0,68.0,29.61,NE,37,1.0,4.0,97,0.00,,,0.00,,2013-06-13 03:22:00,
2013-06-12 23:33:00,69.0,68.0,29.61,NE,35,2.0,7.0,97,0.00,,,0.00,,2013-06-13 03:33:00,
2013-06-12 23:43:00,67.0,66.0,29.63,NE,42,4.0,10.0,96,0.00,,,0.00,,2013-06-13 03:43:00,
2013-06-12 23:52:00,66.0,65.0,29.63,NNE,20,2.0,13.0,96,0.00,,,0.00,,2013-06-13 03:52:00,